Torna al catalogo

STARLINK-35854

AttivoComunicazioniSSO
NORAD 68214·PAYLOAD·🇺🇸 United States

Lanciato Mar 17, 2026 da Vandenberg Space Force Base

Loading…

Prossimi Passaggi (prossime 24 ore)

TLE

AggiornatoSource: CelesTrak SupGP

Epoca: Sep 15, 2026, 03:32 UTC

1 68214C 26053H   26258.14770833  .00025393  00000+0  78790-3 0  2586
2 68214  97.2850 132.0212 0001936  95.6952 314.8769 15.33439729    15

Traccia STARLINK-35854 in tempo reale con AllMySat

Download on the App Store